CamptonHillsWeather.com

Find the Weather for any City, State  
or Zipcode, or Country:

Campton Hills, IL Weather
Local Radar

Local Radar

Graphs, Details
Graphs and Gauges
Detailed Weather
Detailed Reports
Ajax Version (old)
Central Kane Co Summary
Davis Current Weather Graphs
Davis 24 Hour Weather History

CW3778 Data

Weather Underground
Maps
Temperature
Heat Index
Windchill
Humidity
Radar
Dew Point
Wind
Visibility
Visible Satellite
Satellite
Fronts
Snow Depth
Jet Stream
Flight Rules
Forecast Maps
Temperature Forecast
Maximum Temperature Forecast
Minimum Temperature Forecast
Dewpoint Forecast
Prevalent Weather
12Hr Probability of Precip.
Sky Cover
Health Maps
UV Forecast
Air Quality
Peak Air Quality Index
Weather Station
Davis Instruments Vantage Pro
Current Conditions [Select Refresh to Update]

Updated: 8:46pm on 12/21/14

(location)
Currently:
35.0F

Clear
Overcast

High: 36.8 F< 
(2:17pm
Low: 31.0 F 
(12:00am)
Wind: SSE 4 mph
Light Breeze
Gust: 5 mph
Today's High Wind: 14 mph (12:45pm)
Humidity: 88%
Pressure: 30.06 in  (Steady
Pressure Rate: -0.015 in/hr
Dew Point: 31.8F
Wind Chill: 31.5 F
Heat Index (feels like): 40.3 F
Comfort Level: Cool
Temperature Rate:  -0.21F/hr
 
5 Day Forecast
 
Mon Tue Wed Thu Fri
Clear Clear Clear Clear Clear
Chance Sleet Chance Rain unknown Partly Cloudy Mostly Cloudy
43 45 39 41 41
41 34 28 32 18

Records and Normals
 
Temperature Forecast Normal Record
High 43 0 0
(0)
Low 41 0 0
(0)
 
Links
 
 
Weather Advisories
No Advisories
Full Advisory Text...
Weather Map

Web Cam

Almanac
 
Sunrise:  
7:17am
Moonrise: 
6:33am

Moon Phase:
0%

Sunset: 
4:25pm
Moonset:  
4:33pm
 Star Chart...
Rainfall Totals
Hourly Rain 0.00 in
Daily Rain: 0.00 in
Monthly Rain: 0.27 in
Yearly Rain: 35.50 in
Normal Rain, month to date: 0.00 in
Normal Rain, year to date: 0.00 in
Link to Village of Campton Hills Map

Link to Counties of Illinois Map

Local Weather Exchange Network
Station ID City 
(Click for Map Location)
Neighborhood 
(Click for History)
Last Update (Date & Time) Temperature
 ()
Dew
Point ()
Humidity 
(%)
Wind 
(mph)
from the Wind Gust 
(mph) 
Pressure(in) Hourly
Rain(in)
MD5528 Wasco APRSWXNET Campton Hills IL US 12/21 20:05:00 35.0 30.0 82 3 SSE 0 30.04 0.00
KILWAYNE4 Wayne Hampton Course 12/21 20:36:55 36.3 33.0 87 0 North 0 30.13 0.00
KILCAMPT3 Campton Hills Campton Hills 12/21 20:40:18 35.6 32.0 85 0 SSW 8 30.07 0.00
KILSTCHA11 St. Charles 3 Lakes 12/21 20:25:45 35.0 32.0 87 1 North 0 29.81 0.00
KILGENEV6 Geneva Dover Ridge 12/21 20:40:16 35.3 32.0 86 6 South 6 30.04 0.00
KILSTCHA8 St. Charles Ronzheimer Ave. & S. Tyler Rd. 12/21 20:40:20 35.2 31.0 85 4 SSE 9 30.04 0.00
KILGENEV3 Geneva Mill Creek (NE) 12/21 20:40:19 35.8 32.0 85 2 SSE 10 30.10 0.00
KILSTCHA1 St Charles CamptonHillsWeather.com Central Kane County 12/21 20:40:19 35.0 32.0 88 4 SSE 5 30.06 0.00
KILGENEV7 Geneva Eldorado Drive 12/21 20:35:42 35.1 32.0 89 0 North 0 29.97 0.00
KILSOUTH5 South Elgin Concord Park 12/21 20:18:51 35.2 35.0 99 0 WNW 0 29.78 0.00
KILGENEV2 Geneva Mill Creek 12/21 20:27:30 35.2 31.0 85 4 SE 8 30.02 0.00
KILBATAV1 Batavia Tri-Cities on the Fox River 12/21 20:39:44 35.9 29.0 77 2 SE 8 30.07 0.00
KILELBUR9 Elburn Griffith Avenue 12/21 20:37:12 35.8 32.0 87 0 North 0 29.23 0.00
KILELBUR5 Elburn Prairie Highlands 12/21 20:40:15 36.0 33.0 89 3 SE 10 30.05 0.00
MD7322 Elburn APRSWXNET Elburn IL US 12/21 19:56:00 35.0 32.0 89 1 SW 5 30.05 0.00
KILBATAV3 Batavia West Batavia 12/21 20:35:19 35.2 31.0 86 2 SSE 0 30.03 0.00
KILELBUR6 Elburn Columbine Square 12/21 20:30:59 34.8 32.0 88 3 SE 10 30.01 0.00
KILELBUR8 Elburn Columbine 12/21 20:39:11 34.8 32.0 88 12 SSE 12 30.03 0.00
KILWESTC5 West Chicago THEBROWNHOUSE.ORG 12/21 20:40:15 34.0 26.0 73 0 North 0 30.01 0.00
KILWESTC8 West Chicago Ingalton Hills Estates 12/21 20:40:18 34.0 31.0 90 2 East 2 30.20 0.00
KILNORTH11 North Aurora Waterford Oaks 12/21 20:40:19 35.5 32.0 86 5 SE 12 30.05 0.00
MUP188 Elburn MesoWest ELBRN1 IL US UPR 12/21 19:30:00 36.0 0.0 0 0 North 0 0.00 0.00
KILELGIN14 Elgin Elgin, IL 12/21 20:40:19 35.4 31.0 84 10 South 10 29.96 0.00
MUP431 West Chicago MesoWest WINFL1 IL US UPR 12/21 18:50:00 35.0 0.0 0 0 North 0 0.00 0.00
KILGILBE2 Gilberts Gilberts, IL 12/21 20:40:18 34.7 31.0 85 6 ESE 10 29.68 0.00
KILELGIN11 Elgin Trout Park 12/21 20:40:17 33.6 26.0 72 4 East 8 30.05 0.00
KILWINFI3 Winfield Fredericksburg Farm 12/21 20:40:15 34.4 30.0 85 2 ESE 6 29.98 0.00
KILWINFI2 Winfield Winfield Heights (SarahNet) 12/21 20:37:16 35.1 30.0 83 0 SE 6 30.06 0.00
KILSLEEP3 Sleepy Hollow SLEEPY HOLLOW 12/21 20:40:11 34.7 30.0 84 2 SSE 3 29.51 0.00
KILCAROL6 Carol Stream Merbach Ct 12/21 20:40:20 35.2 30.0 82 3 SE 6 29.65 0.00
KILSLEEP2 Sleepy Hollow Sleepy Hollow Manor 12/21 20:26:45 35.2 32.0 89 3 North 0 29.92 0.00
KILWARRE2 Warrenville meso_neigh32 12/21 20:40:13 35.4 31.0 85 1 SSE 10 30.04 0.00
KILSTREA12 Streamwood Petri Dish 12/21 20:36:45 35.1 29.0 79 3 South 0 29.83 0.00
KILHANOV2 Hanover Park meso_neigh34 12/21 20:39:19 34.7 27.0 74 2 East 3 30.07 0.00
KILWHEAT8 Wheaton Wheaton Sanitary District 12/21 20:28:26 36.7 33.0 87 0 SE 4 30.07 0.00
KDPA Chicago DuPage Official Station 12/21 19:52:00 36.0 30.0 79 7 SSE --- 30.06 ---
KARR Aurora Official Station 12/21 19:52:00 36.0 29.0 76 9 SE --- 30.06 ---
KDKB DeKalb Official Station 12/21 20:15:00 33.0 30.0 88 14 SSE --- 30.01 ---
KORD Chicago Official Station 12/21 20:31:00 34.0 28.0 79 12 SSE --- 30.04 ---
Full Advisory Text
No Warnings

Ambient Weather and Weather Underground
 Never base important decisions on this or any weather information obtained from the Internet
Updated Automatically by Ambient Weather's Virtual Weather Station  V13.01